Location: Cactus School
(34.5700°N, 118.0931°W)
Time: 10:36:50
(UTC-07:00)

Vanguard 2 Rocket - All Passes

Search period start: 23 April 2024 00:00
Search period end: 03 May 2024 00:00
Orbit: 555 x 3307 km, 32.9° (Epoch: 23 April)

Date Brightness Start Highest point End Pass type
(mag) Time Alt. Az. Time Alt. Az. Time Alt. Az.
23 Apr - 01:32:09 10° W 01:52:22 75° SSW 02:09:07 10° ESE visible
23 Apr - 03:51:11 10° W 04:08:52 43° SW 04:21:30 10° SSE visible
23 Apr - 06:18:20 10° WSW 06:21:55 11° SW 06:25:11 10° SW daylight
23 Apr - 17:50:59 10° SSE 17:58:01 18° SE 18:07:12 10° E daylight
23 Apr - 19:58:59 10° SW 20:11:19 54° SSE 20:29:49 10° ENE visible
23 Apr - 22:12:04 10° WSW 22:28:19 82° S 22:48:50 10° E visible
24 Apr - 00:27:57 10° W 00:47:25 82° S 01:06:00 10° ESE visible
24 Apr - 02:45:51 10° WNW 03:05:15 56° SSW 03:20:02 10° SE visible
24 Apr - 05:07:38 10° W 05:19:38 22° SW 05:28:58 10° S visible
24 Apr - 18:57:57 10° SSW 19:08:16 40° SE 19:24:05 10° E daylight
24 Apr - 21:09:31 10° WSW 21:23:44 75° SSE 21:43:59 10° E visible
24 Apr - 23:24:16 10° W 23:42:16 85° S 00:02:12 10° E visible
25 Apr - 01:41:08 10° W 02:00:58 67° SSW 02:17:48 10° SE visible
25 Apr - 04:00:39 10° W 04:16:51 34° SW 04:29:09 10° SSE visible
25 Apr - 17:57:47 10° S 18:05:54 26° SE 18:17:43 10° E daylight
25 Apr - 20:07:32 10° SW 20:19:45 64° SSE 20:38:45 10° E visible
25 Apr - 22:21:06 10° W 22:37:13 85° S 22:57:48 10° E visible
26 Apr - 00:36:58 10° W 00:56:11 76° SSW 01:14:49 10° ESE visible
26 Apr - 02:54:58 10° W 03:13:25 46° SW 03:28:06 10° SSE visible
26 Apr - 05:19:39 10° W 05:27:26 14° SW 05:34:10 10° SSW visible
26 Apr - 16:59:25 10° SSE 17:04:04 14° SE 17:09:49 10° E daylight
26 Apr - 19:06:10 10° SW 19:16:29 50° SSE 19:33:10 10° ENE daylight
26 Apr - 21:18:28 10° WSW 21:32:30 81° SSE 21:52:52 10° E visible
26 Apr - 23:33:19 10° W 23:51:08 82° S 00:11:06 10° ESE visible
27 Apr - 01:50:07 10° WNW 02:09:21 58° SSW 02:26:08 10° SE visible
27 Apr - 04:10:45 10° W 04:24:41 25° SW 04:36:02 10° S visible
27 Apr - 18:05:27 10° SSW 18:13:55 35° SE 18:27:18 10° E daylight
27 Apr - 20:16:20 10° WSW 20:28:22 73° SSE 20:47:34 10° E visible
27 Apr - 22:30:10 10° W 22:46:06 85° S 23:06:42 10° E visible
28 Apr - 00:45:56 10° W 01:04:45 68° SSW 01:23:22 10° SE visible
28 Apr - 03:04:22 10° W 03:21:24 36° SW 03:35:38 10° SSE visible
28 Apr - 17:05:42 10° S 17:11:58 21° SE 17:20:53 10° E daylight
28 Apr - 19:14:43 10° SW 19:24:54 61° SSE 19:42:03 10° E daylight
28 Apr - 21:27:29 10° W 21:41:22 84° S 22:01:44 10° E visible
28 Apr - 23:42:20 10° W 23:59:51 77° SSW 00:19:48 10° ESE visible
29 Apr - 01:59:13 10° W 02:17:32 48° SW 02:34:04 10° SSE visible
29 Apr - 04:22:09 10° W 04:32:29 17° SW 04:41:33 10° SSW visible
29 Apr - 18:13:37 10° SW 18:22:07 46° SE 18:36:25 10° E daylight
29 Apr - 20:25:16 10° WSW 20:37:08 80° SSE 20:56:22 10° E visible
29 Apr - 22:39:13 10° W 22:54:56 82° S 23:15:30 10° ESE visible
30 Apr - 00:54:56 10° W 01:13:08 59° SSW 01:31:35 10° SE visible
30 Apr - 03:14:19 10° W 03:29:16 27° SW 03:42:25 10° S visible
30 Apr - 17:13:12 10° SSW 17:20:00 30° SE 17:30:38 10° E daylight
30 Apr - 19:23:29 10° WSW 19:33:30 71° SSE 19:50:50 10° E daylight
30 Apr - 21:36:33 10° W 21:50:14 85° S 22:10:33 10° E visible
30 Apr - 23:51:19 10° W 00:08:26 69° SSW 00:28:14 10° SE visible
01 May - 02:08:35 10° W 02:25:33 38° SW 02:41:27 10° SSE visible
01 May - 16:13:57 10° SSE 16:18:23 16° SE 16:24:12 10° E daylight
01 May - 18:22:08 10° SW 18:30:31 57° SSE 18:45:17 10° E daylight
01 May - 20:34:17 10° W 20:45:58 84° S 21:05:09 10° E visible
01 May - 22:48:14 10° W 23:03:40 76° SSW 23:24:05 10° ESE visible
02 May - 01:04:03 10° W 01:21:21 49° SSW 01:39:21 10° SE visible
02 May - 03:25:22 10° W 03:37:07 19° SW 03:47:59 10° S visible
02 May - 17:21:17 10° SSW 17:28:12 40° SE 17:39:49 10° E daylight
02 May - 19:32:24 10° WSW 19:42:15 78° SSE 19:59:34 10° E daylight
02 May - 21:45:35 10° W 21:59:04 82° S 22:19:14 10° ESE visible
